Wind_Speed
2 2 3 4 4 4 5 5 5 5 6 6 6 6 6 6 6 6 6 6 5 4 4 4 4 4 4 4 4 4 3 4 4 4 3 3 3 4 3 3 3 3 4 6 7 7 7 7 7
3 3 3 4 4 4 5 5 5 6 6 6 6 6 6 6 6 7 7 6 6 5 5 4 4 4 4 4 3 3 3 3 3 4 4 4 3 4 4 4 4 3 4 4 6 6 6 7 8
4 3 3 3 3 4 5 5 6 6 6 7 7 7 6 6 7 7 7 7 6 6 5 5 5 5 4 4 4 4 4 3 3 4 4 4 5 5 5 4 4 4 4 4 5 6 7 7 8
4 4 4 4 4 5 6 5 6 7 7 7 7 7 7 7 7 7 7 7 7 6 5 6 5 5 5 5 5 5 5 5 4 4 5 5 5 5 5 5 5 4 4 4 5 6 7 8 9
4 4 4 4 5 6 6 6 7 7 8 8 8 7 7 7 7 7 7 7 7 7 6 6 6 6 5 5 5 5 5 5 5 6 6 6 6 6 6 6 5 5 5 5 6 7 7 7 8
3 4 4 4 5 5 6 7 8 8 8 8 8 7 7 7 7 8 8 7 7 8 8 7 6 7 6 6 6 6 5 6 6 6 7 7 7 7 7 6 5 6 6 6 6 7 7 7 7
4 4 4 5 6 6 6 7 7 8 8 8 8 8 8 8 8 8 8 8 8 8 8 7 7 7 7 6 6 6 7 7 7 7 7 7 7 7 7 6 6 7 7 6 7 7 7 7 8
4 4 5 5 6 6 6 7 7 7 8 8 9 8 8 8 8 8 8 8 8 8 8 8 8 8 7 7 7 7 8 8 8 8 7 7 6 6 6 6 7 7 7 7 8 8 8 8 8
5 5 5 6 7 7 7 7 7 7 7 8 8 8 8 9 9 8 8 8 8 8 8 8 8 8 8 8 8 8 8 8 9 8 8 7 6 6 6 7 7 7 7 7 8 8 7 7 8
5 5 6 7 7 7 7 8 8 8 8 8 8 8 8 8 8 9 9 8 8 7 7 8 8 8 8 8 8 8 8 8 8 8 7 7 7 7 7 8 8 8 8 8 9 9 9 8 8
6 6 6 7 8 8 8 8 9 9 8 8 8 8 8 8 8 8 9 8 8 7 7 7 7 8 8 8 8 8 8 7 7 7 7 7 8 8 8 8 8 8 9 9 10 10 10 9 9
6 6 6 7 7 8 8 8 8 9 8 8 8 8 8 8 8 8 8 8 8 8 8 7 7 7 7 8 8 8 8 8 7 7 7 7 8 8 9 9 8 9 9 10 11 10 10 9 10
6 7 7 7 7 8 8 8 8 9 9 9 9 9 10 10 9 8 8 8 8 8 8 8 9 8 7 8 8 8 8 8 7 8 8 8 8 8 8 8 9 9 9 9 10 10 10 10 10
7 7 7 7 7 8 8 9 9 9 9 9 10 10 10 10 10 9 9 9 9 9 9 9 9 8 8 8 7 7 8 8 8 8 8 9 9 8 9 9 9 9 9 9 10 10 10 11 12
7 7 7 7 8 8 9 9 9 10 10 10 10 11 11 11 11 11 11 10 10 10 10 9 10 9 9 8 8 8 8 8 9 9 9 9 9 9 9 9 10 10 10 10 11 11 12 12 12
8 8 8 8 8 8 9 9 10 10 11 11 11 11 12 12 12 12 12 12 12 11 11 11 11 10 10 9 9 8 8 9 9 10 9 9 10 9 9 9 9 10 11 11 11 12 12 13 13
9 9 10 9 9 10 10 10 11 11 11 12 12 12 12 13 13 13 13 13 13 12 12 12 12 11 10 10 10 10 10 10 10 10 10 10 10 10 10 10 10 11 11 11 11 12 12 12 13
10 11 11 11 11 11 12 12 12 12 13 12 12 13 13 14 14 14 14 14 13 13 12 12 12 12 12 11 11 11 11 11 11 11 11 11 11 11 11 11 11 11 12 12 12 12 12 13 13
11 11 12 12 13 13 13 13 13 13 13 13 13 13 14 14 14 14 15 14 13 13 13 13 13 13 12 12 12 12 12 12 12 12 12 12 12 11 11 11 11 12 12 13 13 14 14 14 14
12 13 13 13 14 14 14 13 14 14 14 14 14 15 15 15 15 15 15 15 15 14 14 15 15 14 14 13 12 13 13 13 12 12 12 12 12 12 11 12 12 12 13 14 14 15 15 15 15
13 14 14 15 14 14 15 14 15 15 14 15 15 16 16 16 16 15 15 15 16 16 16 16 15 15 15 13 13 13 13 13 12 12 12 12 12 12 12 13 13 14 14 15 15 16 16 16 16
15 15 15 16 15 15 15 15 15 16 16 16 17 17 17 17 17 17 16 16 16 16 15 15 15 15 14 14 13 13 12 12 12 12 13 13 13 13 13 14 15 15 15 15 15 15 15 16 16
16 16 16 17 17 17 16 16 15 17 17 17 18 18 18 17 17 17 17 17 17 16 16 15 15 15 15 14 14 13 13 12 12 13 13 13 13 13 14 15 15 16 16 15 15 15 15 16 16
17 17 17 18 18 18 16 17 17 19 19 18 19 19 19 19 18 18 18 17 17 17 17 17 16 16 15 15 15 15 14 13 13 14 14 14 15 15 15 15 15 15 16 15 15 15 15 16 16
17 17 17 18 18 18 17 19 20 19 19 19 20 20 20 19 19 18 18 18 18 18 18 18 18 17 17 17 17 17 16 15 15 15 16 16 16 16 16 16 16 16 16 16 15 15 16 16 17
18 18 18 18 18 18 17 20 21 20 21 21 21 21 20 20 20 20 20 20 20 20 20 19 19 19 19 19 19 18 18 18 17 17 17 17 17 17 17 17 17 17 16 16 16 16 16 17 17
19 19 19 20 18 18 19 20 21 21 22 21 21 21 21 20 20 20 20 21 21 21 21 21 20 20 20 20 20 19 19 19 19 18 18 18 18 17 18 18 18 17 16 16 17 17 17 17 17
20 19 19 20 20 19 21 23 23 23 22 22 22 21 21 21 22 21 21 21 22 22 22 21 21 21 21 21 21 21 20 20 20 20 19 19 19 19 19 18 18 17 17 17 17 18 18 18 18
22 21 22 22 22 21 22 23 23 23 23 24 24 23 23 23 23 22 22 21 22 23 23 23 23 22 22 22 22 22 21 21 21 22 21 20 20 20 19 19 19 19 18 18 18 18 18 18 18
24 24 23 24 24 24 24 26 25 24 24 25 25 25 24 24 24 23 23 23 23 23 23 24 23 23 24 23 23 23 22 23 23 23 22 22 21 21 20 20 20 20 20 20 20 19 19 19 19
Wind_Direction
221 225 221 220 221 217 224 222 226 234 238 233 232 233 233 232 230 232 233 238 238 234 237 240 240 242 240 244 246 245 250 252 254 264 273 285 295 297 293 296 294 273 254 242 230 233 237 236 237
233 231 229 227 221 222 232 231 233 238 238 236 235 237 237 234 231 233 235 239 237 235 238 243 243 244 243 247 247 249 256 261 264 274 275 283 292 295 294 289 283 276 266 253 241 238 240 243 242
238 232 230 227 223 230 235 241 241 241 240 239 239 239 242 239 236 236 237 238 238 234 238 245 253 251 247 247 249 255 261 263 268 280 286 287 291 299 290 282 277 269 265 260 250 251 253 252 250
240 234 231 228 235 244 247 244 247 246 245 246 242 239 240 240 240 238 240 242 241 239 242 249 254 248 246 250 254 260 263 264 267 278 289 291 295 294 295 294 283 274 268 268 262 258 258 262 257
244 238 240 239 242 249 251 247 250 250 249 246 244 240 243 241 242 243 243 246 245 246 248 251 254 253 252 256 259 262 264 266 272 280 285 290 293 294 294 296 292 283 280 278 272 263 263 265 261
255 246 252 250 253 252 255 251 248 250 253 250 246 242 243 242 246 247 245 248 248 246 249 251 253 255 256 260 263 263 263 271 278 282 282 285 290 292 291 294 296 296 296 292 283 275 268 267 268
257 250 254 254 264 257 257 258 256 252 250 250 247 244 243 245 250 252 251 252 250 247 245 246 249 253 253 259 264 264 268 275 279 282 283 284 288 286 286 291 296 295 294 297 293 287 283 277 278
263 253 257 260 263 263 256 257 258 256 252 249 249 247 244 247 251 252 254 252 253 251 249 246 249 252 258 262 265 269 274 277 279 281 285 285 285 282 280 293 295 291 291 290 293 294 291 288 286
262 258 257 259 264 265 258 256 257 256 252 248 246 244 246 249 250 252 254 252 252 255 257 254 251 253 261 266 267 270 275 277 277 279 281 279 279 279 283 287 287 288 290 290 291 292 289 289 292
268 259 260 261 264 266 260 257 257 257 253 251 252 248 248 250 255 257 256 256 255 259 260 259 258 258 264 270 274 275 276 277 277 277 277 276 280 281 282 281 282 282 283 287 289 286 288 289 294
271 265 263 261 262 266 263 260 256 255 258 257 256 254 250 254 256 256 254 258 256 258 263 264 263 264 270 274 275 276 277 277 278 277 278 280 280 282 282 282 279 280 282 286 287 286 290 292 294
267 268 267 268 268 267 265 264 259 257 258 260 261 261 260 259 260 259 256 256 254 256 262 264 266 267 269 272 274 274 277 277 277 277 279 282 282 282 284 282 280 279 279 282 284 284 291 292 295
267 266 269 269 268 266 263 261 260 259 259 260 261 260 261 262 263 261 262 261 261 263 265 265 266 269 271 272 275 277 278 277 277 280 282 284 285 285 284 284 281 281 281 281 283 289 291 291 292
267 271 273 273 271 271 267 262 261 261 261 261 263 263 260 261 261 260 262 265 265 264 265 267 266 270 273 276 274 276 277 275 277 281 284 286 284 285 286 290 290 287 284 280 281 288 288 291 292
266 273 274 277 274 272 271 267 265 262 264 265 265 266 264 261 261 261 262 264 264 264 266 266 267 269 272 277 276 275 275 275 276 280 282 283 282 283 285 289 292 290 285 283 284 287 288 290 289
272 274 273 274 277 277 274 269 267 265 267 267 266 266 264 263 262 262 261 261 262 263 263 263 265 269 270 272 273 275 276 278 279 280 281 282 283 285 287 287 290 291 287 285 284 285 287 287 286
267 272 275 275 275 276 276 276 273 270 268 267 267 267 265 263 265 264 262 263 262 262 262 260 262 266 268 270 270 275 274 276 280 281 283 283 283 286 286 285 287 285 284 283 285 285 286 286 285
268 270 274 277 276 274 276 279 277 276 274 272 269 269 268 265 266 265 262 262 262 258 258 257 258 262 265 267 270 274 272 274 278 281 282 283 285 285 285 285 286 288 285 285 288 290 287 287 286
268 271 271 273 276 276 276 278 279 275 274 274 272 270 268 267 266 263 262 262 260 258 257 258 258 261 261 263 266 270 271 272 277 280 280 283 283 284 285 286 289 291 291 289 289 289 289 289 290
267 271 271 270 274 276 274 277 277 274 272 275 274 272 268 266 267 264 261 260 258 257 258 258 258 259 259 261 263 268 271 273 276 279 281 282 283 286 288 288 291 292 291 290 291 292 291 290 292
269 272 273 273 272 274 277 276 279 276 273 271 270 271 269 267 267 264 259 256 257 255 256 258 258 257 255 259 266 269 270 274 276 279 281 283 283 285 288 288 290 292 292 293 292 291 291 291 293
269 272 273 276 277 279 279 279 276 279 277 274 272 272 271 267 265 263 260 258 258 258 257 257 255 254 257 260 266 268 268 270 273 275 279 281 283 285 287 289 290 292 293 295 294 293 292 293 295
269 271 273 276 279 279 281 281 276 276 277 278 275 272 271 268 264 262 260 259 258 259 258 257 255 257 259 259 263 264 267 268 270 272 276 280 283 286 289 290 291 292 293 294 295 295 293 293 294
270 269 270 273 276 277 281 280 276 277 279 279 276 272 270 268 264 259 258 257 256 256 256 257 256 258 259 260 260 262 264 265 269 273 275 279 284 286 288 290 292 294 295 294 295 296 296 295 295
269 268 269 272 275 279 282 279 277 276 275 275 273 271 270 267 263 260 258 256 256 255 255 256 257 260 260 260 259 259 262 266 269 272 275 279 283 285 287 289 291 292 294 294 293 294 295 295 296
268 266 264 266 272 274 273 274 278 275 273 274 273 272 269 265 262 260 258 257 255 255 255 254 256 258 260 259 258 259 261 264 267 272 275 279 280 282 284 287 288 289 291 293 293 292 293 294 295
265 264 266 265 267 271 274 275 275 273 275 275 274 271 268 265 263 262 260 258 258 259 257 255 255 256 258 257 257 258 261 265 268 271 274 277 278 280 283 286 287 286 288 290 293 293 293 294 294
267 263 261 261 262 263 269 271 271 272 274 276 275 272 270 267 265 263 261 260 259 259 257 255 254 254 255 256 256 258 260 264 269 270 271 273 277 280 282 284 285 285 287 288 290 290 292 293 293
267 264 261 261 260 259 262 266 268 267 270 271 271 269 268 268 266 264 262 260 259 258 257 256 255 253 254 255 256 259 260 263 267 270 271 272 275 279 280 281 283 284 285 286 288 287 291 292 291
267 265 261 260 260 257 258 265 268 267 267 268 269 267 266 267 266 263 262 261 260 258 258 256 254 254 254 255 256 258 260 264 266 270 270 272 274 278 280 280 281 282 283 284 286 286 288 291 290
Height
5856 5856 5857 5858 5859 5859 5858 5859 5859 5860 5860 5861 5861 5862 5863 5864 5865 5868 5867 5866 5866 5867 5867 5868 5868 5869 5869 5869 5870 5870 5870 5870 5870 5870 5870 5870 5871 5871 5870 5870 5870 5870 5871 5871 5872 5872 5873 5873 5874
5855 5856 5857 5858 5857 5857 5858 5858 5859 5859 5860 5860 5861 5862 5862 5863 5864 5865 5865 5865 5866 5867 5867 5867 5868 5868 5869 5869 5869 5870 5870 5870 5870 5870 5870 5870 5870 5870 5870 5870 5870 5870 5871 5871 5871 5872 5872 5873 5873
5855 5855 5857 5857 5856 5857 5857 5858 5858 5858 5859 5860 5861 5862 5862 5863 5863 5864 5864 5865 5866 5866 5866 5867 5867 5867 5868 5868 5869 5869 5869 5870 5870 5870 5869 5870 5870 5870 5870 5870 5870 5870 5870 5870 5871 5871 5871 5872 5872
5854 5855 5856 5857 5856 5856 5856 5857 5857 5858 5859 5859 5860 5861 5861 5862 5862 5863 5863 5864 5865 5865 5866 5866 5867 5867 5867 5868 5868 5869 5869 5869 5869 5869 5869 5869 5869 5869 5869 5869 5869 5870 5870 5870 5870 5870 5871 5871 5871
5854 5855 5855 5855 5855 5855 5856 5856 5857 5857 5858 5858 5859 5860 5860 5861 5862 5862 5863 5863 5864 5864 5865 5866 5866 5866 5867 5867 5868 5868 5868 5869 5869 5869 5869 5869 5869 5869 5869 5869 5869 5869 5869 5869 5869 5869 5869 5869 5869
5853 5854 5854 5854 5854 5855 5855 5855 5856 5857 5857 5857 5858 5859 5860 5860 5861 5861 5862 5863 5863 5864 5864 5865 5865 5866 5866 5867 5867 5867 5868 5868 5868 5868 5868 5868 5868 5868 5868 5868 5868 5868 5869 5868 5868 5869 5868 5868 5868
5853 5853 5853 5853 5853 5854 5854 5855 5855 5856 5856 5857 5857 5858 5859 5859 5860 5860 5861 5862 5862 5863 5863 5864 5864 5865 5866 5866 5866 5867 5867 5867 5867 5867 5867 5867 5867 5867 5868 5867 5867 5868 5868 5868 5868 5867 5867 5867 5867
5852 5853 5852 5852 5853 5853 5854 5854 5854 5855 5855 5856 5857 5857 5858 5859 5859 5859 5860 5861 5861 5862 5862 5863 5864 5864 5865 5865 5865 5866 5866 5866 5866 5866 5866 5866 5866 5867 5867 5867 5867 5867 5867 5867 5867 5866 5866 5866 5866
5851 5853 5851 5851 5852 5852 5853 5853 5853 5854 5854 5855 5855 5857 5857 5857 5858 5858 5859 5860 5860 5861 5861 5862 5863 5863 5864 5864 5864 5865 5865 5865 5865 5865 5865 5865 5866 5866 5866 5866 5866 5866 5866 5866 5865 5865 5865 5865 5865
5850 5851 5850 5851 5851 5851 5852 5852 5852 5853 5854 5854 5854 5855 5856 5856 5856 5857 5857 5858 5859 5860 5860 5860 5861 5862 5863 5863 5863 5863 5864 5864 5864 5864 5864 5865 5865 5865 5865 5865 5865 5865 5865 5864 5864 5864 5863 5863 5863
5849 5849 5849 5850 5850 5850 5851 5851 5851 5852 5852 5853 5853 5854 5855 5855 5855 5856 5856 5857 5858 5858 5859 5859 5860 5861 5861 5862 5862 5862 5863 5863 5863 5863 5863 5863 5864 5864 5864 5864 5864 5864 5863 5863 5863 5862 5862 5862 5862
5848 5848 5848 5849 5849 5849 5849 5850 5850 5851 5852 5852 5852 5853 5853 5854 5854 5855 5855 5856 5857 5857 5858 5858 5859 5860 5860 5861 5861 5861 5862 5862 5862 5862 5862 5862 5862 5862 5862 5862 5862 5862 5862 5862 5861 5861 5861 5860 5860
5847 5847 5847 5848 5848 5848 5848 5849 5849 5849 5850 5850 5851 5852 5852 5853 5853 5854 5854 5854 5855 5856 5857 5857 5858 5858 5859 5859 5859 5860 5860 5860 5860 5861 5861 5861 5861 5861 5861 5861 5860 5860 5860 5860 5859 5859 5859 5859 5858
5846 5846 5846 5846 5846 5846 5847 5847 5848 5848 5848 5849 5849 5850 5850 5851 5851 5852 5853 5853 5854 5855 5855 5856 5856 5857 5857 5858 5858 5858 5859 5859 5859 5859 5859 5859 5859 5859 5859 5859 5859 5858 5858 5858 5857 5857 5857 5857 5856
5843 5844 5845 5845 5845 5845 5846 5846 5846 5846 5846 5847 5847 5848 5849 5849 5850 5850 5851 5852 5852 5853 5854 5854 5855 5855 5856 5856 5856 5857 5857 5857 5858 5858 5858 5858 5857 5857 5857 5857 5857 5857 5856 5856 5855 5855 5855 5854 5854
5842 5843 5843 5843 5843 5844 5845 5845 5844 5844 5845 5845 5845 5846 5846 5847 5848 5848 5849 5850 5850 5851 5852 5853 5853 5854 5854 5855 5855 5855 5856 5856 5856 5856 5856 5856 5856 5856 5855 5855 5855 5855 5855 5854 5853 5853 5852 5852 5851
5840 5841 5841 5842 5842 5842 5842 5842 5842 5842 5842 5843 5843 5843 5844 5845 5845 5846 5846 5847 5848 5848 5849 5850 5851 5852 5852 5853 5853 5854 5854 5854 5854 5854 5854 5854 5854 5854 5853 5853 5853 5853 5853 5852 5851 5850 5850 5849 5849
5839 5839 5839 5839 5839 5839 5840 5840 5839 5840 5839 5840 5841 5841 5841 5842 5842 5843 5843 5844 5845 5846 5847 5848 5849 5849 5850 5851 5851 5852 5852 5852 5852 5852 5852 5852 5852 5852 5851 5851 5851 5851 5850 5850 5849 5848 5847 5846 5846
5837 5837 5837 5837 5837 5837 5837 5837 5837 5837 5838 5838 5838 5839 5839 5839 5839 5840 5840 5841 5842 5843 5844 5845 5846 5847 5847 5848 5849 5849 5849 5850 5850 5850 5850 5850 5850 5849 5849 5849 5849 5848 5848 5847 5846 5846 5845 5844 5843
5834 5834 5834 5834 5834 5834 5834 5835 5834 5834 5835 5835 5835 5836 5836 5836 5837 5837 5837 5838 5839 5840 5841 5842 5842 5844 5844 5845 5846 5846 5847 5847 5848 5848 5847 5847 5847 5847 5847 5846 5846 5846 5845 5844 5844 5843 5842 5841 5840
5831 5831 5832 5832 5831 5831 5832 5832 5832 5832 5832 5832 5832 5832 5832 5833 5833 5834 5834 5835 5836 5836 5837 5838 5839 5840 5841 5842 5843 5844 5844 5844 5845 5845 5845 5844 5844 5844 5844 5844 5843 5843 5842 5841 5840 5840 5839 5838 5837
5828 5828 5828 5828 5828 5828 5829 5828 5829 5828 5828 5829 5829 5829 5829 5829 5830 5830 5831 5832 5833 5833 5834 5835 5836 5837 5838 5839 5840 5840 5841 5841 5842 5842 5842 5842 5841 5841 5841 5841 5840 5839 5839 5838 5837 5836 5835 5834 5833
5825 5825 5825 5825 5824 5825 5825 5825 5826 5824 5825 5825 5825 5825 5825 5825 5826 5826 5827 5828 5829 5830 5831 5832 5832 5833 5834 5835 5836 5837 5837 5838 5838 5838 5839 5839 5838 5838 5838 5837 5837 5836 5835 5834 5833 5833 5832 5831 5830
5821 5821 5821 5821 5821 5821 5822 5821 5822 5821 5821 5821 5821 5820 5821 5821 5822 5822 5823 5824 5825 5826 5827 5828 5829 5830 5830 5831 5832 5833 5834 5834 5835 5835 5835 5835 5835 5835 5834 5834 5833 5833 5832 5831 5830 5829 5828 5827 5826
5816 5817 5817 5816 5816 5817 5818 5817 5817 5817 5817 5816 5816 5816 5816 5817 5817 5818 5819 5820 5821 5822 5823 5824 5825 5826 5827 5828 5829 5829 5830 5830 5831 5831 5831 5831 5831 5831 5831 5830 5830 5829 5828 5827 5826 5825 5824 5823 5822
5811 5812 5813 5813 5813 5813 5813 5812 5813 5812 5812 5811 5811 5811 5811 5812 5812 5813 5814 5815 5815 5816 5818 5819 5820 5821 5822 5823 5824 5825 5825 5826 5827 5827 5827 5827 5827 5827 5827 5826 5826 5825 5824 5823 5823 5822 5821 5819 5818
5807 5807 5808 5808 5807 5808 5808 5808 5807 5806 5806 5806 5806 5806 5806 5807 5807 5808 5808 5809 5810 5811 5812 5813 5815 5816 5817 5818 5819 5820 5821 5821 5822 5822 5823 5823 5823 5822 5822 5822 5821 5821 5820 5819 5819 5818 5817 5815 5814
5802 5802 5802 5802 5802 5802 5803 5803 5802 5801 5801 5801 5801 5801 5801 5801 5802 5802 5803 5804 5805 5805 5806 5808 5809 5810 5811 5812 5813 5814 5815 5816 5817 5817 5818 5818 5818 5818 5817 5817 5817 5816 5815 5815 5814 5813 5812 5811 5810
5796 5796 5795 5796 5796 5797 5797 5798 5796 5795 5795 5796 5795 5795 5796 5796 5796 5797 5797 5797 5799 5800 5800 5801 5803 5804 5805 5807 5808 5809 5810 5811 5811 5812 5812 5813 5813 5813 5812 5812 5812 5811 5811 5810 5809 5809 5807 5806 5805
5789 5789 5789 5790 5790 5790 5790 5792 5790 5790 5789 5789 5789 5789 5790 5790 5791 5791 5792 5792 5793 5794 5794 5795 5797 5798 5799 5800 5801 5803 5804 5805 5806 5806 5807 5807 5807 5807 5807 5807 5806 5806 5805 5805 5804 5803 5802 5801 5800